Wind_Speed
34 34 34 33 34 34 34 34 35 35 35 35 35 36 35 36 36 36 36 36 36 37 37 37 38 38 38 39 39 39 39 38 38 38 38 37 37 37 37 37 37 38 38
37 36 35 35 35 36 36 37 37 36 36 37 37 38 38 38 38 38 38 38 39 39 40 40 40 41 41 41 41 41 41 41 40 39 39 38 39 38 39 38 39 39 39
39 39 38 37 37 37 38 38 38 38 38 39 39 39 39 39 40 41 41 40 41 41 42 42 43 43 43 43 43 43 43 43 42 41 41 41 41 41 41 41 41 41 41
41 40 40 39 39 39 39 38 39 39 40 40 40 40 40 40 42 42 43 43 43 44 44 45 44 44 44 45 45 45 45 45 45 44 44 44 44 44 43 43 43 43 43
41 41 40 40 39 39 39 39 39 40 40 41 41 41 41 42 43 44 45 45 44 45 46 46 46 46 46 46 46 46 47 47 47 47 46 46 46 46 45 45 46 45 45
41 41 41 41 41 40 41 40 41 41 41 42 42 42 42 43 44 45 45 46 47 47 47 47 47 48 48 48 47 47 47 47 47 48 48 48 48 48 48 48 47 47 47
41 42 42 41 42 42 42 42 42 42 43 43 44 44 44 44 44 45 46 46 47 48 47 48 48 49 49 49 49 49 49 49 49 49 49 49 49 49 49 49 49 50 49
42 43 43 43 43 43 44 44 44 44 44 44 44 44 44 45 45 45 46 47 47 48 49 49 49 49 50 50 51 51 51 51 51 50 50 50 50 50 51 51 51 51 51
43 43 43 43 44 44 45 45 45 44 44 45 45 45 46 45 46 46 47 48 48 49 49 50 50 50 50 51 52 52 52 51 52 51 51 51 51 52 52 53 53 53 52
45 44 45 44 45 45 45 45 45 46 46 47 47 47 47 48 48 47 47 48 49 49 50 51 52 52 52 52 52 52 52 51 51 52 52 52 52 53 53 54 54 54 53
47 46 46 46 46 46 46 46 46 47 47 47 47 48 48 49 49 49 48 48 49 49 50 51 52 52 52 52 52 52 52 52 52 52 52 52 53 53 54 54 54 54 54
46 47 47 46 46 46 47 48 48 48 48 48 48 48 48 48 49 49 48 48 48 48 49 50 51 52 52 52 52 52 53 53 53 53 53 53 54 54 54 54 54 54 54
45 45 45 45 45 45 46 47 47 48 48 48 48 49 49 49 48 48 48 48 48 48 49 50 50 51 52 52 53 54 54 54 54 53 54 54 54 54 54 53 54 54 54
43 43 43 43 44 44 45 45 47 47 48 48 48 49 50 50 49 48 49 49 48 49 49 49 50 51 51 52 53 53 54 54 54 54 54 53 53 53 53 54 54 53 53
42 43 43 44 44 44 44 45 46 46 47 47 48 48 49 49 50 50 50 50 49 49 49 50 50 50 51 51 52 52 53 53 54 54 53 53 53 52 52 52 52 52 52
41 42 42 42 43 43 44 44 44 45 45 45 46 47 47 48 48 49 50 50 50 50 50 50 51 50 50 50 50 50 51 51 51 52 52 51 51 51 51 51 51 51 50
41 41 42 42 42 43 43 43 43 43 43 43 44 45 45 46 47 47 48 49 49 50 49 48 49 49 49 48 48 48 48 49 49 50 50 51 51 51 51 50 49 48 48
40 41 41 42 41 41 41 41 41 41 41 42 42 43 43 44 45 45 46 47 48 49 49 47 46 46 46 47 46 46 47 48 48 48 49 50 50 51 50 49 48 47 47
40 40 40 40 40 40 40 40 40 40 41 41 41 42 42 42 43 43 44 45 46 46 46 46 45 45 45 45 45 45 45 46 46 46 46 46 48 48 48 48 47 47 46
39 39 39 39 39 39 40 40 39 39 40 40 40 41 41 41 42 42 43 43 43 43 43 44 43 43 44 44 44 45 45 45 45 45 45 45 45 45 45 46 46 46 46
38 38 38 38 38 38 38 39 39 38 38 38 39 40 40 40 41 41 41 41 40 40 41 41 41 42 42 42 42 43 43 42 43 44 43 43 43 42 42 43 43 44 44
36 37 37 37 37 37 37 37 37 36 35 36 37 38 38 38 39 39 39 39 39 39 39 39 39 39 40 40 40 40 41 40 40 41 40 40 39 39 40 40 40 40 41
36 36 36 35 35 35 35 35 35 34 35 35 36 37 37 37 37 37 37 38 38 38 38 38 38 38 37 38 38 38 38 38 37 37 37 37 37 37 38 38 38 38 38
34 34 34 34 33 33 33 34 34 34 34 34 34 35 35 34 35 36 36 36 37 37 37 36 35 35 35 35 35 35 35 35 35 35 35 35 35 35 36 36 36 35 35
32 32 31 31 32 32 33 33 33 32 32 32 33 33 34 34 34 34 34 35 35 35 34 34 33 33 33 33 33 33 33 32 32 32 32 33 33 33 33 33 33 33 32
30 30 30 30 30 31 31 31 31 31 31 32 32 32 33 33 33 33 33 33 33 32 31 31 31 31 31 32 32 31 30 30 30 30 30 30 30 30 29 30 31 30 30
Wind_Direction
265 265 265 264 265 266 266 266 267 268 270 271 272 272 272 272 272 272 272 273 273 274 276 276 277 278 278 277 277 277 277 278 279 279 279 278 278 278 277 277 277 277 277
264 264 265 264 265 266 266 267 268 269 270 270 271 273 273 273 273 272 273 273 274 275 275 276 277 277 278 278 278 277 277 278 278 278 278 278 278 277 276 276 277 277 276
264 265 266 267 267 267 267 268 269 270 270 271 272 273 273 273 273 273 273 274 275 276 276 276 277 277 277 278 278 278 277 277 277 277 277 277 277 277 277 277 277 277 276
265 265 265 267 268 269 269 268 270 270 271 272 273 272 273 274 274 274 274 275 275 276 276 276 277 277 278 278 278 277 277 277 277 277 277 276 277 277 277 276 277 277 277
265 265 265 266 267 268 268 269 271 270 271 271 273 273 274 275 275 275 275 275 276 276 276 277 277 277 278 278 278 278 277 277 277 277 277 276 276 276 276 275 276 276 276
265 265 265 266 266 267 268 270 270 270 271 272 273 274 275 276 277 276 275 275 276 276 277 277 277 278 279 279 278 278 278 277 277 277 276 276 276 276 276 275 275 275 275
265 265 266 267 267 267 268 270 272 271 271 273 273 274 275 277 277 277 277 277 277 277 278 277 277 278 278 279 279 279 278 278 278 277 277 276 276 276 275 275 274 275 275
267 266 266 267 268 269 269 270 272 273 273 273 274 274 275 276 277 278 279 279 279 279 279 278 278 277 277 278 278 278 278 277 277 277 276 276 276 276 276 275 275 275 274
267 267 267 268 269 270 271 271 271 272 273 275 275 275 276 276 278 279 280 280 281 281 280 279 278 278 278 278 278 277 277 277 276 276 276 275 276 276 276 276 275 274 274
267 268 268 268 269 270 270 270 271 272 273 275 276 276 277 278 278 278 279 281 282 282 281 280 280 280 279 279 278 277 277 277 276 276 276 276 276 276 276 276 275 274 274
268 268 269 269 270 270 270 270 271 272 274 274 274 276 278 278 279 279 279 280 281 282 282 281 281 281 280 279 279 278 277 277 277 276 276 276 276 276 276 276 276 275 275
267 268 269 269 270 270 270 271 272 272 273 274 274 276 277 279 280 280 280 281 282 283 283 283 283 282 280 279 279 278 278 278 278 278 277 277 276 276 276 276 276 276 276
267 268 268 268 269 270 271 272 272 273 275 275 276 276 277 279 281 281 282 283 283 283 283 284 284 283 281 280 279 279 278 278 277 278 277 277 277 277 276 276 276 276 275
267 267 267 268 270 271 273 273 274 275 276 276 277 277 278 279 281 282 283 283 283 283 284 284 284 283 282 281 280 279 279 278 277 277 278 277 277 277 276 276 276 276 275
266 267 267 269 270 272 273 275 276 277 277 278 278 279 280 280 281 281 282 284 284 284 284 284 284 284 283 282 281 280 279 279 278 278 278 278 277 277 277 277 276 275 274
266 267 268 269 272 274 275 276 277 278 279 279 280 281 281 281 281 281 282 283 284 285 285 285 285 283 283 282 281 280 280 279 279 278 278 278 278 277 277 277 276 275 273
268 269 269 270 272 274 275 276 278 279 280 281 282 283 283 283 284 284 283 284 285 286 286 286 285 284 283 283 282 281 281 281 280 280 280 279 278 278 277 276 275 273 273
269 271 271 272 273 274 276 277 278 280 281 282 283 284 284 284 285 286 286 286 286 286 286 286 285 284 284 284 284 283 282 282 281 281 281 280 279 278 277 276 273 273 274
270 271 272 273 273 274 275 277 279 279 281 282 283 284 284 285 285 286 287 288 287 287 287 286 286 285 285 285 285 284 284 283 283 282 283 282 281 278 276 274 273 273 273
270 271 272 273 273 274 275 277 278 279 280 281 282 283 284 284 285 287 288 289 289 289 288 288 286 286 286 286 286 285 284 283 283 283 283 283 281 279 276 275 274 273 273
272 272 272 274 275 276 276 277 278 279 280 280 282 283 284 284 286 288 289 290 291 291 290 289 288 288 288 287 287 286 285 283 283 283 283 283 282 280 278 277 276 274 274
273 273 273 274 275 276 277 278 278 280 279 280 282 284 285 286 287 289 290 291 292 292 291 291 290 290 290 289 289 288 287 285 284 284 284 284 283 282 280 279 277 276 275
273 274 273 273 274 276 277 277 278 279 280 282 284 285 286 287 288 289 291 292 292 293 293 292 291 291 291 291 290 290 289 288 287 286 285 286 285 284 282 281 280 278 277
274 274 274 274 274 276 277 278 278 278 280 281 284 285 286 288 290 292 293 293 294 294 294 293 292 292 293 294 294 293 292 291 290 289 288 288 287 285 284 283 281 280 279
273 274 275 275 276 277 277 277 277 277 279 282 284 285 286 289 292 294 295 295 294 294 294 293 293 294 295 296 296 295 295 294 292 291 291 290 288 287 285 283 282 281 280
273 274 274 276 276 277 278 278 278 277 279 283 285 288 290 292 293 295 296 296 295 295 295 295 295 296 297 297 298 298 297 296 294 293 293 293 292 289 286 284 283 281 279
Height
5787 5787 5788 5788 5789 5790 5790 5791 5791 5791 5791 5791 5791 5791 5791 5790 5790 5790 5790 5790 5790 5789 5789 5788 5787 5787 5786 5785 5784 5783 5782 5781 5781 5780 5779 5779 5778 5777 5776 5775 5775 5774 5773
5779 5780 5780 5781 5782 5782 5783 5783 5783 5783 5783 5783 5783 5783 5782 5782 5782 5782 5782 5782 5781 5781 5780 5779 5779 5778 5777 5776 5775 5775 5774 5773 5772 5771 5771 5770 5769 5768 5767 5767 5766 5765 5764
5771 5772 5773 5773 5774 5774 5775 5775 5775 5775 5775 5775 5774 5774 5774 5773 5773 5773 5773 5772 5772 5772 5771 5770 5769 5768 5767 5766 5766 5765 5764 5763 5762 5762 5761 5761 5760 5759 5758 5757 5756 5756 5755
5763 5764 5765 5765 5766 5766 5766 5766 5766 5767 5766 5766 5766 5765 5765 5764 5764 5763 5763 5763 5762 5762 5761 5760 5759 5758 5757 5756 5755 5755 5754 5753 5752 5752 5751 5750 5750 5749 5748 5747 5746 5746 5745
5754 5755 5756 5757 5757 5757 5757 5757 5758 5758 5758 5757 5757 5756 5756 5755 5754 5753 5753 5752 5752 5751 5750 5750 5749 5748 5747 5746 5745 5744 5743 5742 5741 5741 5740 5739 5738 5738 5737 5736 5735 5735 5734
5745 5746 5747 5747 5748 5748 5748 5748 5749 5749 5749 5748 5748 5747 5746 5745 5744 5743 5743 5742 5741 5740 5739 5738 5738 5737 5736 5735 5734 5733 5732 5731 5730 5729 5728 5727 5726 5726 5725 5724 5724 5723 5722
5736 5737 5737 5738 5738 5739 5739 5739 5739 5739 5739 5738 5738 5738 5737 5736 5734 5733 5732 5731 5730 5729 5728 5727 5726 5725 5724 5723 5722 5721 5720 5719 5718 5717 5715 5715 5714 5713 5713 5712 5711 5711 5710
5726 5727 5728 5728 5728 5729 5730 5729 5729 5729 5728 5728 5728 5727 5727 5727 5725 5723 5721 5720 5719 5718 5717 5715 5714 5713 5712 5711 5709 5708 5707 5706 5705 5704 5703 5702 5701 5700 5700 5699 5698 5697 5697
5716 5717 5718 5718 5719 5719 5719 5719 5719 5719 5718 5718 5717 5716 5716 5716 5715 5713 5711 5709 5707 5706 5704 5703 5702 5700 5699 5698 5696 5695 5694 5693 5692 5691 5690 5689 5688 5687 5686 5685 5684 5683 5682
5706 5707 5707 5708 5708 5708 5708 5708 5708 5708 5708 5707 5706 5705 5704 5703 5702 5702 5701 5698 5696 5694 5692 5690 5689 5687 5685 5684 5683 5681 5680 5679 5678 5677 5676 5675 5675 5673 5672 5671 5670 5669 5668
5695 5696 5696 5696 5697 5697 5697 5697 5697 5696 5696 5696 5695 5694 5692 5691 5689 5689 5689 5687 5684 5682 5680 5677 5675 5673 5672 5670 5669 5668 5666 5665 5665 5664 5663 5662 5661 5659 5658 5657 5655 5654 5653
5684 5684 5685 5685 5685 5685 5686 5685 5685 5684 5684 5683 5683 5682 5680 5679 5677 5676 5675 5674 5672 5670 5667 5664 5662 5659 5658 5656 5655 5654 5653 5652 5650 5649 5648 5647 5646 5644 5643 5642 5641 5639 5638
5672 5672 5673 5673 5673 5673 5673 5673 5673 5672 5672 5671 5670 5669 5668 5667 5665 5663 5661 5660 5659 5658 5655 5651 5648 5646 5644 5642 5641 5640 5639 5637 5636 5635 5633 5632 5631 5630 5628 5627 5626 5624 5623
5660 5661 5661 5662 5662 5662 5662 5661 5661 5660 5659 5659 5658 5657 5656 5654 5652 5650 5648 5647 5646 5645 5642 5639 5636 5633 5630 5629 5627 5625 5624 5623 5621 5620 5619 5617 5616 5615 5613 5612 5611 5609 5608
5650 5650 5651 5651 5651 5651 5651 5650 5650 5649 5648 5647 5645 5644 5643 5641 5639 5637 5635 5633 5632 5631 5630 5626 5623 5619 5617 5615 5613 5611 5610 5608 5606 5605 5603 5602 5601 5599 5598 5597 5595 5594 5593
5639 5639 5640 5640 5640 5640 5640 5639 5638 5637 5636 5635 5633 5632 5630 5628 5626 5624 5622 5620 5618 5616 5616 5614 5610 5606 5603 5601 5599 5597 5596 5594 5592 5590 5588 5587 5586 5584 5583 5582 5580 5579 5578
5629 5629 5629 5629 5629 5629 5628 5628 5627 5626 5625 5623 5621 5619 5618 5615 5613 5611 5609 5607 5605 5602 5601 5600 5596 5593 5590 5588 5586 5584 5582 5580 5578 5576 5574 5572 5571 5569 5568 5567 5565 5564 5563
5618 5618 5618 5618 5618 5618 5617 5617 5616 5615 5613 5612 5610 5608 5606 5604 5602 5599 5597 5594 5592 5589 5587 5586 5583 5580 5578 5575 5573 5570 5568 5566 5564 5562 5560 5558 5556 5554 5553 5552 5551 5550 5549
5607 5607 5607 5607 5607 5607 5606 5605 5605 5604 5602 5601 5599 5597 5595 5593 5590 5588 5585 5582 5579 5576 5574 5572 5571 5568 5565 5562 5560 5558 5555 5553 5551 5548 5546 5544 5542 5540 5538 5538 5537 5536 5536
5597 5597 5596 5596 5596 5596 5595 5594 5593 5593 5591 5590 5588 5586 5584 5581 5579 5577 5574 5571 5568 5565 5562 5560 5558 5555 5553 5550 5547 5545 5543 5540 5538 5535 5533 5530 5528 5526 5525 5524 5524 5523 5523
5586 5586 5586 5586 5585 5585 5584 5583 5583 5582 5581 5579 5577 5575 5573 5570 5568 5566 5563 5560 5557 5554 5551 5549 5546 5544 5541 5538 5535 5533 5531 5528 5526 5522 5520 5518 5516 5514 5512 5511 5510 5509 5509
5576 5575 5575 5575 5575 5574 5573 5573 5572 5571 5570 5569 5567 5564 5562 5560 5557 5555 5552 5549 5547 5544 5541 5538 5535 5533 5530 5527 5524 5521 5518 5517 5515 5512 5509 5507 5504 5503 5501 5499 5498 5497 5497
5566 5565 5565 5565 5564 5564 5563 5562 5562 5561 5560 5558 5557 5555 5552 5550 5547 5545 5542 5540 5537 5533 5530 5527 5525 5522 5520 5517 5514 5511 5507 5505 5503 5500 5498 5496 5493 5492 5490 5488 5486 5485 5485
5556 5556 5555 5555 5555 5554 5553 5552 5552 5551 5550 5549 5547 5545 5543 5540 5538 5535 5533 5530 5527 5524 5521 5518 5515 5513 5510 5506 5503 5500 5497 5495 5492 5490 5488 5486 5484 5481 5479 5477 5476 5474 5474
5547 5547 5546 5546 5546 5545 5544 5543 5543 5542 5541 5540 5538 5536 5533 5531 5529 5527 5524 5522 5519 5515 5511 5509 5506 5504 5501 5497 5494 5491 5489 5486 5484 5481 5478 5476 5474 5472 5470 5468 5466 5465 5464
5538 5538 5538 5537 5537 5536 5535 5534 5534 5533 5533 5531 5529 5527 5525 5523 5520 5517 5515 5513 5510 5507 5504 5501 5498 5496 5492 5489 5486 5483 5480 5477 5475 5473 5470 5467 5465 5463 5463 5460 5457 5456 5455